UAE89W YSSY-NZWN

Flight info

Callsign UAE89W
Flight time N/A
Altitude 39000
Route KEVIN7/16L CAWLY M636 TANEN DCT SIMZI
Aircraft B77L/H-SDE1E2E3FGHIJ2J3J4J5M1RWXY/LB1D1

Departure

Time 2026-04-25 04:34
Airport Sydney Kingsford Smith International Airport (YSSY)

Arrival

Time N/A
Airport Wellington International Airport (NZWN)
Time Latitude Longitude Altitude Speed Heading
2026-04-25 04:00 -33.93933 151.16461 25 ft 0 kts 148°
2026-04-25 04:21 -33.93931 151.16459 25 ft 0 kts 148°
2026-04-25 04:23 -33.93920 151.16451 50 ft 2 kts 148°
2026-04-25 04:24 -33.93871 151.16442 31 ft 3 kts 251°
2026-04-25 04:24 -33.93871 151.16417 25 ft 0 kts 273°
2026-04-25 04:25 -33.93900 151.16331 28 ft 14 kts 220°
2026-04-25 04:25 -33.94025 151.16279 29 ft 30 kts 193°
2026-04-25 04:25 -33.94170 151.16306 28 ft 17 kts 129°
2026-04-25 04:26 -33.94177 151.16371 30 ft 8 kts 74°
2026-04-25 04:26 -33.94149 151.16471 28 ft 18 kts 70°
2026-04-25 04:26 -33.94103 151.16653 28 ft 28 kts 77°
2026-04-25 04:26 -33.94042 151.16914 29 ft 34 kts 71°
2026-04-25 04:27 -33.93982 151.17176 26 ft 31 kts 75°
2026-04-25 04:27 -33.93949 151.17327 25 ft 13 kts 75°
2026-04-25 04:27 -33.93926 151.17430 26 ft 13 kts 75°
2026-04-25 04:27 -33.93902 151.17533 26 ft 13 kts 75°
2026-04-25 04:28 -33.93876 151.17636 24 ft 13 kts 71°
2026-04-25 04:28 -33.93865 151.17755 28 ft 12 kts 110°
2026-04-25 04:28 -33.93893 151.17774 28 ft 9 kts 164°
2026-04-25 04:28 -33.94027 151.17813 27 ft 25 kts 165°
2026-04-25 04:29 -33.94198 151.17863 29 ft 25 kts 172°
2026-04-25 04:29 -33.94355 151.17896 27 ft 0 kts 163°
2026-04-25 04:29 -33.94359 151.17898 29 ft 3 kts 164°
2026-04-25 04:30 -33.94422 151.17909 29 ft 16 kts 183°
2026-04-25 04:30 -33.94555 151.17891 28 ft 22 kts 173°
2026-04-25 04:30 -33.94719 151.17937 27 ft 27 kts 161°
2026-04-25 04:30 -33.94913 151.17987 29 ft 31 kts 168°
2026-04-25 04:31 -33.95101 151.18050 31 ft 18 kts 139°
2026-04-25 04:31 -33.95105 151.18131 30 ft 12 kts 72°
2026-04-25 04:31 -33.95071 151.18280 29 ft 27 kts 78°
2026-04-25 04:31 -33.95016 151.18549 31 ft 33 kts 74°
2026-04-25 04:32 -33.94994 151.18715 29 ft 0 kts 80°
2026-04-25 04:33 -33.94992 151.18729 29 ft 4 kts 80°
2026-04-25 04:33 -33.94993 151.18785 28 ft 9 kts 98°
2026-04-25 04:33 -33.95087 151.18863 27 ft 30 kts 162°
2026-04-25 04:33 -33.95464 151.18962 28 ft 96 kts 168°
2026-04-25 04:34 -33.96424 151.19219 34 ft 184 kts 169°
2026-04-25 04:34 -33.97812 151.19581 545 ft 213 kts 164°
2026-04-25 04:34 -33.99278 151.19959 1584 ft 217 kts 166°
2026-04-25 04:34 -34.00694 151.20726 2187 ft 237 kts 135°
2026-04-25 04:35 -34.01528 151.22493 2524 ft 253 kts 97°
2026-04-25 04:35 -34.01639 151.24626 3149 ft 257 kts 89°
2026-04-25 04:35 -34.01781 151.26760 3979 ft 261 kts 98°
2026-04-25 04:35 -34.02363 151.28849 4789 ft 266 kts 121°
2026-04-25 04:36 -34.03597 151.30522 5494 ft 272 kts 146°
2026-04-25 04:36 -34.05381 151.31255 6244 ft 272 kts 173°
2026-04-25 04:36 -34.07239 151.31730 6905 ft 277 kts 158°
2026-04-25 04:36 -34.08959 151.32797 7686 ft 279 kts 147°
2026-04-25 04:37 -34.10540 151.34140 8551 ft 278 kts 142°
2026-04-25 04:37 -34.12074 151.35586 9352 ft 281 kts 141°
2026-04-25 04:37 -34.13539 151.37159 10050 ft 283 kts 127°
2026-04-25 04:37 -34.14435 151.39285 10577 ft 288 kts 111°
2026-04-25 04:38 -34.15175 151.41608 10843 ft 310 kts 111°
2026-04-25 04:38 -34.15704 151.43266 10976 ft 326 kts 111°
2026-04-25 04:38 -34.16550 151.45915 11170 ft 350 kts 111°
2026-04-25 04:38 -34.17454 151.48736 11534 ft 367 kts 111°
2026-04-25 04:39 -34.18388 151.51645 12171 ft 376 kts 111°
2026-04-25 04:39 -34.19344 151.54610 12900 ft 381 kts 111°
2026-04-25 04:39 -34.20628 151.58590 13990 ft 386 kts 112°
2026-04-25 04:39 -34.21290 151.60636 14489 ft 388 kts 112°
2026-04-25 04:40 -34.22276 151.63689 15224 ft 392 kts 112°
2026-04-25 04:40 -34.23271 151.66769 15943 ft 395 kts 112°
2026-04-25 04:40 -34.24273 151.69873 16651 ft 398 kts 112°
2026-04-25 04:40 -34.25272 151.72971 17343 ft 402 kts 112°
2026-04-25 04:41 -34.26291 151.76134 18030 ft 406 kts 112°
2026-04-25 04:41 -34.27318 151.79325 18703 ft 409 kts 111°
2026-04-25 04:41 -34.28353 151.82547 19276 ft 413 kts 112°
2026-04-25 04:41 -34.29397 151.85798 19872 ft 416 kts 112°
2026-04-25 04:42 -34.30446 151.89068 20487 ft 418 kts 112°
2026-04-25 04:42 -34.31502 151.92362 21100 ft 421 kts 112°
2026-04-25 04:42 -34.32609 151.95647 21692 ft 423 kts 115°
2026-04-25 04:42 -34.33981 151.98809 22287 ft 425 kts 121°
2026-04-25 04:43 -34.35496 152.01898 22847 ft 428 kts 121°
2026-04-25 04:43 -34.37028 152.05000 23420 ft 431 kts 121°
2026-04-25 04:43 -34.38576 152.08138 23988 ft 434 kts 121°
2026-04-25 04:43 -34.40121 152.11286 24459 ft 436 kts 121°
2026-04-25 04:44 -34.41672 152.14458 24920 ft 439 kts 121°
2026-04-25 04:44 -34.43229 152.17657 25386 ft 442 kts 121°
2026-04-25 04:44 -34.44790 152.20874 25839 ft 444 kts 121°
2026-04-25 04:44 -34.46339 152.24072 26277 ft 447 kts 121°
2026-04-25 04:45 -34.47917 152.27335 26727 ft 450 kts 121°
2026-04-25 04:45 -34.49502 152.30617 27157 ft 452 kts 121°
2026-04-25 04:45 -34.51094 152.33917 27584 ft 455 kts 121°
2026-04-25 04:45 -34.52697 152.37241 27989 ft 458 kts 121°
2026-04-25 04:46 -34.54308 152.40586 28415 ft 460 kts 121°
2026-04-25 04:46 -34.55925 152.43945 28814 ft 463 kts 121°
2026-04-25 04:46 -34.57553 152.47331 29188 ft 465 kts 121°
2026-04-25 04:46 -34.59186 152.50731 29559 ft 468 kts 121°
2026-04-25 04:47 -34.60829 152.54154 29925 ft 470 kts 121°
2026-04-25 04:47 -34.62474 152.57586 30312 ft 471 kts 121°
2026-04-25 04:47 -34.64120 152.61022 30735 ft 470 kts 121°
2026-04-25 04:47 -34.65760 152.64450 31160 ft 468 kts 121°
2026-04-25 04:48 -34.67390 152.67862 31566 ft 467 kts 121°
2026-04-25 04:48 -34.69001 152.71235 31923 ft 467 kts 121°
2026-04-25 04:48 -34.70628 152.74646 32273 ft 466 kts 121°
2026-04-25 04:48 -34.72250 152.78047 32644 ft 465 kts 122°
2026-04-25 04:49 -34.73871 152.81452 33044 ft 464 kts 122°
2026-04-25 04:50 -34.93441 153.22819 36748 ft 451 kts 122°
2026-04-25 04:50 -34.96579 153.29494 36892 ft 456 kts 122°
2026-04-25 04:50 -34.98140 153.32819 36995 ft 458 kts 122°
2026-04-25 04:51 -34.99720 153.36190 37158 ft 458 kts 122°
2026-04-25 04:51 -35.01300 153.39565 37278 ft 459 kts 122°
2026-04-25 04:51 -35.02888 153.42959 37342 ft 461 kts 122°
2026-04-25 04:52 -35.06071 153.49773 37393 ft 462 kts 122°
2026-04-25 04:52 -35.09230 153.56552 37400 ft 458 kts 122°
2026-04-25 04:53 -35.12377 153.63317 37403 ft 456 kts 121°
2026-04-25 04:53 -35.15497 153.70036 37407 ft 454 kts 121°
2026-04-25 04:54 -35.18615 153.76762 37423 ft 454 kts 121°
2026-04-25 04:54 -35.21729 153.83494 37411 ft 455 kts 121°
2026-04-25 04:55 -35.24841 153.90236 37404 ft 456 kts 121°
2026-04-25 04:55 -35.27939 153.96960 37417 ft 457 kts 121°
2026-04-25 04:56 -35.31035 154.03694 37416 ft 459 kts 121°
2026-04-25 04:56 -35.34167 154.10517 37417 ft 460 kts 121°
2026-04-25 04:57 -35.37302 154.17363 37414 ft 461 kts 121°
2026-04-25 04:57 -35.40432 154.24212 37414 ft 460 kts 121°
2026-04-25 04:58 -35.43556 154.31062 37414 ft 460 kts 121°
2026-04-25 04:58 -35.46673 154.37908 37435 ft 459 kts 121°
2026-04-25 04:59 -35.49776 154.44740 37414 ft 457 kts 121°
2026-04-25 04:59 -35.52864 154.51550 37418 ft 456 kts 121°
2026-04-25 05:00 -35.55940 154.58350 37422 ft 455 kts 121°
2026-04-25 05:00 -35.58986 154.65094 37425 ft 454 kts 121°
2026-04-25 05:01 -35.62009 154.71900 37426 ft 453 kts 119°
2026-04-25 05:01 -35.64831 154.78835 37427 ft 454 kts 118°
2026-04-25 05:02 -35.67607 154.85802 37430 ft 453 kts 118°
2026-04-25 05:02 -35.70401 154.92763 37432 ft 454 kts 118°
2026-04-25 05:03 -35.73209 154.99724 37421 ft 454 kts 118°
2026-04-25 05:03 -35.75991 155.06617 37430 ft 454 kts 118°
2026-04-25 05:04 -35.78798 155.13586 37430 ft 454 kts 118°
2026-04-25 05:04 -35.81604 155.20567 37429 ft 454 kts 118°
2026-04-25 05:05 -35.84404 155.27553 37428 ft 455 kts 118°
2026-04-25 05:05 -35.87181 155.34496 37428 ft 455 kts 118°
2026-04-25 05:06 -35.89973 155.41491 37431 ft 455 kts 117°
2026-04-25 05:06 -35.92761 155.48489 37431 ft 454 kts 117°